Regional Weather Roundup
Issued by NWS Grand Forks, ND

Home | Current Version | Previous Version | Graphics & Text | Print | Product List | Glossary On
Versions: 1 2 3 4 5 6 7 8 9 10 11 12 13 14 15 16 17 18 19 20 21 22 23 24 25 26 27 28 29 30 31 32 33 34 35 36 37 38 39 40 41 42 43 44 45 46 47 48 49 50
354
ASUS43 KFGF 241331
RWRFGF
PRAIRIE TO PINES  WEATHER ROUNDUP
NATIONAL WEATHER SERVICE EASTERN NORTH DAKOTA/GRAND FORKS ND
800 AM CDT WED MAY 24 2017

 **SATELLITE DATA USED TO AUGMENT SKY COVER AT AUTOMATED STATIONS**
 *****  WEATHER ACROSS EASTERN NORTH DAKOTA  *****

CITY           SKY/WX    TMP DP  RH WIND       PRES   REMARKS
GRAND FORKS    FAIR      50  46  86 SE5       29.83F
GRAND FRKS AFB FAIR      51  45  80 CALM      29.83F
DEVILS LAKE    FAIR      51  44  77 SE7       29.81F
FARGO          FAIR      49  45  86 CALM      29.84S
WAHPETON ARPT  CLOUDY    50  45  81 E3        29.83S
$$

 ***** WEATHER ACROSS CENTRAL AND WESTERN NORTH DAKOTA  *****

CITY           SKY/WX    TMP DP  RH WIND       PRES   REMARKS
BISMARCK       FAIR      43  38  82 NE3       29.79F
MINOT          FAIR      55  38  52 S15       29.71F
JAMESTOWN      FAIR      48  43  82 SE9       29.80F
MINOT AFB      FAIR      54  38  53 S17G24    29.70F
GARRISON         N/A     49  39  68 S12       29.73F
WILLISTON      FAIR      54  37  52 SE18G30   29.60F
DICKINSON      FAIR      49  35  58 S22G28    29.67F
HETTINGER      FAIR      48  36  63 SE10      29.73F
$$

 *****  OTHER AIRPORT OBSERVATIONS IN OUR AREA  *****

CITY           SKY/WX    TMP DP  RH WIND       PRES   REMARKS
WALHALLA       NOT AVBL
GRAFTON AIRPOR FAIR      54  46  76 S5        29.84F
VALLEY CITY AR FAIR      48  48 100 E7        29.83F
CANDO          NOT AVBL
CAVALIER APRT  FAIR      54  43  66 S8        29.81F
GWINNER        CLOUDY    46  45  93 MISG      29.83S
SHEYENNE NWR     N/A     44  44 100 CALM      29.95
ROLLA          FAIR      52  39  62 S10       29.77F
 ***** THE ABOVE OBSERVATIONS ARE NON NWS ARE NOT QUALITY
       CONTROLLED AND MAY MIS-REPORT RAIN FOR SNOW...
$$

  *****  WEATHER ACROSS NORTHERN MINNESOTA  *****

CITY           SKY/WX    TMP DP  RH WIND       PRES   REMARKS
FLAG ISLAND    FAIR      52  43  71 CALM      29.84S
WARROAD        FAIR      54  48  82 CALM      29.85F
ROSEAU         FAIR      52  46  82 CALM      29.85S
HALLOCK        FAIR      54  45  71 S3        29.83S
THF RVR FALLS  FAIR      50  44  80 CALM      29.86S
BAUDETTE       FAIR      47  45  93 CALM      29.86S
WASKISH        FAIR      48  46  93 E5        29.86S
CROOKSTON      FAIR      52  46  82 E6        29.84F
STEPHEN NDAWN    N/A     52  45  76 SE3         N/A
GREENBUSH NDAW   N/A     52  46  82 S2          N/A
$$
  *****  WEATHER ACROSS CENTRAL AND WEST MINNESOTA  *****

CITY           SKY/WX    TMP DP  RH WIND       PRES   REMARKS
FOSSTON        FAIR      48  46  93 E5        29.85S
BEMIDJI        FAIR      48  42  78 E3        29.85S
PARK RAPIDS    FAIR      50  41  71 E6        29.83S
ELBOW LAKE     CLOUDY    49  47  90 E3        29.83S
WADENA         FAIR      50  45  81 E5        29.83S
DETROIT LAKES  FAIR      50  43  76 E5        29.84S
MOORHEAD       FAIR      46  43  87 CALM      29.84S
FERGUS FALLS   FAIR      54  45  71 SE3       29.82S
MORRIS MN      CLOUDY    50  46  87 CALM      29.82S
STAPLES        FAIR      52  43  71 E6        29.82F
$$
  *****  WEATHER ELSEWHERE ACROSS MINNESOTA  *****

CITY           SKY/WX    TMP DP  RH WIND       PRES   REMARKS
DULUTH         FAIR      51  44  77 NE9       29.82S
INTRNTL FALLS  FAIR      51  42  71 E7        29.86S
ELY            FAIR      48  39  71 NE6       29.85S
CLOQUET        PTSUNNY   50  41  71 NE8       29.82S
WHEATON        CLOUDY    48  45  87 CALM      29.85S
BRAINERD       FAIR      50  46  86 NE5       29.83F
HIBBING        FAIR      49  41  74 E7        29.84F
ALEXANDRIA     CLOUDY    50  46  86 E8        29.83S
SAINT CLOUD    CLOUDY    50  45  83 NE7       29.82S
MINNEAPOLIS    CLOUDY    49  43  80 N12       29.79R
$$

  *****  WEATHER ACROSS SOUTH DAKOTA  *****

CITY           SKY/WX    TMP DP  RH WIND       PRES   REMARKS
SIOUX FALLS    CLOUDY    48  47  96 NE12      29.82S
BROOKINGS      CLOUDY    47  45  93 N5        29.82S
WATERTOWN      CLOUDY    47  45  93 CALM      29.81F
HURON          PTSUNNY   42  42 100 NW3       29.83S FOG
SISSETON         N/A     48  46  93 NW5       29.82F
ABERDEEN       FAIR      44  40  85 NE3       29.83S
MITCHELL       FAIR      44  42  93 N3        29.84S
PIERRE         FAIR      41  37  86 CALM      29.80F
MOBRIDGE       FAIR      45  42  89 SE5       29.78F
RAPID CITY     FAIR      45  38  76 S12       29.75F
$$

  *****  SOME WEATHER IN NEARBY STATES *****

CITY           SKY/WX    TMP DP  RH WIND       PRES   REMARKS
GLASGOW MT     FAIR      57  37  47 SE18      29.42F
GREAT FALLS MT FAIR      64  39  39 SW20      29.41F
CHEYENNE WY    FAIR      50  35  56 SW9       29.84F
SCOTTSBLUFF NE FAIR      41  36  82 SE13      29.79F
OMAHA NE       FAIR      51  46  83 N13       29.77S
DES MOINES IA  CLOUDY    54  51  90 N9        29.68R
DAVENPORT IA   CLOUDY    52  51  97 NE8       29.63F
CHICAGO IL     LGT RAIN  55  52  89 N12       29.58S
EAU CLAIRE WI  FAIR      50  44  80 NE5       29.74F
LA CROSSE WI   CLOUDY    53  49  86 N8        29.71S
$$

  *****  SOME NATIONAL WEATHER *****

CITY           SKY/WX    TMP DP  RH WIND       PRES   REMARKS
LA GUARDIA NY  CLOUDY    59  54  83 NE9       29.75R
RALEIGH NC     CLOUDY    67  64  90 E3        29.68S
ATLANTA GA     CLOUDY    67  64  90 S10       29.59S
NEW ORLEANS LA PTSUNNY   68  58  70 NW16G25   29.68R
OKLAHOMA CITY  FAIR      54  44  69 N10       29.85S
ALBUQUERQUE NM FAIR      51  33  50 NW5       30.07R
SALT LAKE CITY FAIR      62  40  44 SE9       29.85F
LOS ANGELES CA CLOUDY    59  57  93 SW3       29.87R FOG
BOISE ID       FAIR      60  45  57 W5        29.79R
SEATTLE WA     FAIR      47  39  74 S6        30.06R
$$

*** WEATHER ACROSS MANITOBA...SASKATCHEWAN AND ONTARIO ***
                ***ONTARIO***

CITY           SKY/WX    TMP DP  RH WIND       PRES   REMARKS
GERALDTON      MOSUNNY   45  32  61 E8        29.89S
THUNDER BAY    MOSUNNY   54  37  54 E10       29.86S
SIOUX LOOKOUT  MOSUNNY   50  41  71 S5        29.87S
TORONTO        PTSUNNY   63  50  63 E10       29.69S
BIG TROUT LK   SUNNY     46  30  53 SE5       29.87S
PICKLE LAKE    MOSUNNY   52  34  50 SW7       29.88S
DRYDEN         SUNNY     52  39  62 S6        29.86S
KENORA         MOSUNNY   54  43  66 W5        29.85S
$$
                *** MANITOBA***

CITY           SKY/WX    TMP DP  RH WIND       PRES   REMARKS
BRANDON        MOSUNNY   55  39  54 SW12      29.72F
DAUPHIN        SUNNY     61  39  44 SW18G28   29.64F
ISLAND LAKE    PTSUNNY   57 N/A N/A NE6       29.65
PILOT MOUND      N/A     52  39  62 S14         N/A
THE PAS        MOSUNNY   61  39  44 S17       29.48F
THOMPSON       PTSUNNY   57  39  51 S8        29.52F
WINNIPEG       MOSUNNY   54  43  66 S13       29.80F
LYNN LAKE      CLOUDY    54  43  66 SW8       29.41S
CHURCHILL      CLOUDY    45  41  87 S17       29.48F
GILLAM         CLOUDY    57  36  44 S15       29.60F
$$
                ***SASKATCHEWAN***

CITY           SKY/WX    TMP DP  RH WIND       PRES   REMARKS
ESTEVAN        PTSUNNY   54  39  58 S30G37    29.60F
KINDERSLEY     MOSUNNY   59  43  55 S14       29.10F
LLOYDMINSTER   PTSUNNY   59  46  63 SW15G22   29.00F
PRINCE ALBERT  LGT RAIN  59  39  47 S14G22    29.24F
REGINA         PTSUNNY   55  34  44 SE28G39   29.43F
YORKTON          N/A     57  37  47 S16G24    29.56F
N. BATTLEFORD  PTSUNNY   63  43  48 S18G26    29.09F
LA RONGE       CLOUDY    52  37  58 NE6       29.30F
SASKATOON      PTSUNNY   59  41  51 SE23G31   29.20F
SWIFT CURRENT  SUNNY     57  36  44 S22G32    29.24F
$$
NOTE: THESE ARE AUTOMATED STATIONS WITH LIMITED QUALITY CONTROL
      "FAIR" INDICATES FEW OR NO CLOUDS BELOW 12,000 FEET WITH NO
      SIGNIFICANT WEATHER AND/OR OBSTRUCTIONS TO VISIBILITY.
      SKY/WX - SKY CONDITION AND SIGNIFICANT WEATHER.
      TMP - AIR TEMPERATURE.    DP   - DEWPOINT TEMPERATURE.
      RH  - RELATIVE HUMIDITY.  PRES - PRESSURE.
      HX  - HEAT INDEX.         WCI  - WIND CHILL INDEX.
$




USA.gov is the U.S. government's official web portal to all federal, state and local government web resources and services.